FW1460 Weather Reports


Display with metric or nautical units.
time (UTC)temp
F
wind
direction
speed
MPH
gust
MPH
rain 1hr
in
rain 24hr
in
rain mn
in
humidity
%
barometer
mb
20260831023047 70 184 0.0 2.0 0.03 0.04 0.04 89 1016.5
20260831021545 70 184 0.0 4.0 0.01 0.02 0.02 88 1016.2
20260831014544 70 170 0.0 3.0 0.02 0.02 0.02 88 1016.5
20260831013044 70 163 1.0 7.0 0.01 0.01 0.01 87 1016.4
20260831011546 71 163 1.0 5.0 0.01 0.01 0.01 85 1016.4
20260831010044 71 167 1.0 5.0 0.00 0.00 0.00 84 1016.3
20260831004542 71 188 1.0 5.0 0.00 0.00 0.00 85 1016.2
20260831003041 71 169 1.0 3.0 0.00 0.00 0.00 84 1016.1
20260831001541 71 156 1.0 5.0 0.00 0.00 0.00 84 1016.1
20260831000045 72 184 0.0 8.0 0.00 0.00 0.00 83 1015.9
20260830234541 72 150 1.0 5.0 0.00 0.00 0.00 82 1015.7
20260830233045 72 149 1.0 4.0 0.00 0.00 0.00 81 1015.7
20260830231538 72 137 0.0 4.0 0.00 0.00 0.00 80 1015.8
20260830230038 73 163 1.0 6.0 0.00 0.00 0.00 79 1015.8
20260830224536 73 150 0.0 5.0 0.00 0.00 0.00 76 1016.0
20260830223036 74 169 1.0 7.0 0.00 0.00 0.00 74 1016.2
20260830221539 74 190 2.0 8.0 0.00 0.00 0.00 73 1016.2
20260830220035 74 145 1.0 6.0 0.00 0.00 0.00 71 1016.1
20260830214534 75 157 1.0 9.0 0.00 0.00 0.00 71 1016.2
20260830213037 75 140 0.0 4.0 0.00 0.00 0.00 70 1016.3
20260830211532 76 142 1.0 5.0 0.00 0.00 0.00 68 1016.4
20260830210034 76 160 2.0 9.0 0.00 0.00 0.00 68 1016.2
20260830204530 76 159 1.0 8.0 0.00 0.02 0.00 67 1016.3
20260830203030 77 146 0.0 4.0 0.00 0.02 0.00 65 1016.4
20260830201529 77 171 2.0 8.0 0.00 0.02 0.00 63 1016.4
20260830200027 78 172 2.0 6.0 0.00 0.02 0.00 64 1016.4
20260830194527 78 152 1.0 8.0 0.00 0.02 0.00 62 1016.8
20260830193024 80 147 2.0 6.0 0.00 0.02 0.00 62 1016.9
20260830191522 79 176 1.0 4.0 0.00 0.02 0.00 57 1017.1
20260830190024 80 149 2.0 10.0 0.00 0.02 0.00 60 1017.1
20260830184520 81 169 3.0 10.0 0.00 0.02 0.00 62 1017.3
20260830183019 82 144 1.0 6.0 0.00 0.02 0.00 61 1017.3
20260830181518 83 153 2.0 8.0 0.00 0.02 0.00 51 1017.5
20260830180016 84 110 1.0 10.0 0.00 0.02 0.00 55 1017.7
20260830174515 84 82 2.0 7.0 0.00 0.02 0.00 53 1017.8
20260830173011 83 150 1.0 7.0 0.00 0.02 0.00 56 1017.9
20260830171509 82 150 1.0 8.0 0.00 0.02 0.00 61 1018.0
20260830170028 82 160 1.0 6.0 0.00 0.02 0.00 61 1018.1
20260830164506 82 167 3.0 10.0 0.00 0.02 0.00 58 1018.3
20260830163007 81 157 3.0 8.0 0.00 0.02 0.00 57 1018.3
20260830161501 80 147 2.0 7.0 0.00 0.02 0.00 57 1018.5
20260830160106 80 240 4.0 10.0 0.00 0.02 0.00 60 1018.7
20260830154556 79 189 3.0 8.0 0.00 0.02 0.00 61 1019.0
20260830153054 77 165 2.0 6.0 0.00 0.02 0.00 63 1019.0
20260830151603 78 152 1.0 5.0 0.00 0.02 0.00 63 1019.1
20260830150049 78 234 1.0 6.0 0.00 0.02 0.00 66 1019.3
20260830144553 76 135 1.0 8.0 0.00 0.02 0.00 70 1019.6
20260830143043 76 145 1.0 4.0 0.00 0.02 0.00 72 1019.7
20260830141541 75 147 1.0 5.0 0.00 0.02 0.00 72 1019.7
20260830140039 74 182 2.0 5.0 0.00 0.02 0.00 71 1019.7
20260830134539 73 163 1.0 6.0 0.00 0.02 0.00 72 1019.9
20260830133035 72 158 0.0 4.0 0.00 0.02 0.00 72 1020.1
20260830131529 72 153 2.0 5.0 0.00 0.02 0.00 74 1020.1
20260830130028 71 155 1.0 6.0 0.00 0.02 0.00 74 1020.2
20260830124533 70 267 0.0 4.0 0.00 0.02 0.00 76 1020.4
20260830123023 70 148 1.0 5.0 0.00 0.02 0.00 77 1020.4
20260830121521 69 148 0.0 5.0 0.00 0.02 0.00 79 1020.6
20260830120018 68 172 1.0 3.0 0.00 0.02 0.00 81 1020.5
20260830114514 66 175 0.0 3.0 0.00 0.02 0.00 84 1020.4
20260830113019 65 174 0.0 1.0 0.00 0.02 0.00 83 1020.6
20260830111510 65 174 0.0 2.0 0.00 0.02 0.00 83 1020.3
20260830110009 65 182 0.0 2.0 0.00 0.02 0.00 83 1020.4
20260830104505 63 183 0.0 2.0 0.00 0.02 0.00 83 1020.5
20260830103006 63 183 0.0 1.0 0.00 0.02 0.00 84 1020.6
20260830101503 62 223 0.0 0.0 0.00 0.02 0.00 84 1020.6
20260830094558 62 237 0.0 1.0 0.00 0.02 0.00 85 1020.6
20260830093059 61 292 0.0 0.0 0.00 0.02 0.00 84 1020.5
20260830091557 61 292 0.0 0.0 0.00 0.02 0.00 84 1020.5
20260830090055 61 292 0.0 1.0 0.00 0.02 0.00 85 1020.7
20260830084556 61 292 0.0 0.0 0.00 0.02 0.00 85 1020.8
20260830083054 62 292 0.0 2.0 0.00 0.02 0.00 86 1021.1
20260830081552 62 292 0.0 2.0 0.00 0.02 0.00 86 1021.1
20260830080054 62 294 0.0 2.0 0.00 0.02 0.00 86 1021.1
20260830074549 61 294 0.0 1.0 0.00 0.02 0.00 87 1021.1
20260830073050 60 294 0.0 1.0 0.00 0.02 0.00 87 1021.0
20260830071547 60 294 0.0 1.0 0.00 0.02 0.00 87 1020.9
20260830070047 60 294 0.0 0.0 0.00 0.02 0.00 86 1020.8
20260830064603 60 294 0.0 0.0 0.00 0.02 0.00 85 1020.7
20260830063046 61 294 0.0 0.0 0.00 0.02 0.00 85 1020.8
20260830061544 61 294 0.0 1.0 0.00 0.02 0.00 84 1020.9
20260830060044 61 294 0.0 1.0 0.00 0.02 0.00 85 1020.8
20260830054544 60 294 0.0 1.0 0.00 0.02 0.00 86 1020.8
20260830053043 60 294 0.0 0.0 0.00 0.02 0.00 86 1020.7
20260830051543 60 294 0.0 1.0 0.00 0.02 0.00 86 1020.9
20260830050040 60 298 0.0 3.0 0.00 0.02 0.00 85 1020.8
20260830044540 60 133 0.0 0.0 0.00 0.02 0.00 84 1020.8
20260830043038 60 133 0.0 1.0 0.00 0.02 0.00 84 1020.9
20260830041541 61 133 0.0 1.0 0.00 0.02 0.00 84 1020.9
20260830040037 61 133 0.0 0.0 0.00 0.02 0.00 83 1020.9
20260830034535 61 133 0.0 1.0 0.00 0.02 0.02 82 1020.7
20260830033034 62 133 0.0 1.0 0.00 0.02 0.02 82 1020.7
20260830031533 62 133 0.0 2.0 0.00 0.02 0.02 83 1020.8
20260830030036 63 132 0.0 0.0 0.00 0.02 0.02 82 1020.9
20260830024535 63 132 0.0 2.0 0.00 0.02 0.02 83 1020.8